Zurück zum Katalog

COSMOS 2251 DEB

AktivVLEO
NORAD 35891·DEBRIS·🇷🇺 Russia

Gestartet Jun 16, 1993 von Plesetsk Cosmodrome

Loading…

Nächste Überflüge (nächste 24 Stunden)

TLE

VeraltetSource: Space-Track

Epoche: Sep 7, 2026, 06:05 UTC

1 35891U 93036AUE 26250.25366097  .00213392  00000-0  12355-2 0  9998
2 35891  73.9700 222.2369 0021866 259.4374 100.4390 15.77552200713829

Verfolge COSMOS 2251 DEB in Echtzeit mit AllMySat

Download on the App Store